[[{"header":{"parameterUnit":"m.s-1","parameterCategory":1,"la1":30.2991,"la2":30.254,"lo1":-89.0895,"lo2":-89.0444,"dy":0.0017,"dx":0.0017,"nx":28,"ny":28,"refTime":"2023-09-25T21:00:00:Z","depth":0,"parameterNumber":2,"parameterNumberName":"U-component_of_WINDS"},"data":[0,0,0,0,0,0,0,0,0,0,0,0,0,0,0,0,0,0,0,0,0,0,0,0,0,0,0,0,0,0,0,0,0,0,0,0,0,0,0,0,0,0,0,0,0,0,0,0,0,0,0,0,0,0,0,0,0,0,-4.042,-4.0421,0,-4.0547,-4.0549,-4.055,-4.0499,-4.0496,-4.0493,-4.0491,-4.0625,-4.0631,-4.0637,0,0,0,0,0,0,0,0,0,0,0,0,0,-4.0138,-4.0144,-4.042,-4.0421,-4.0423,-4.0547,-4.0549,-4.055,-4.05,-4.0496,-4.0493,-4.0489,-4.0623,-4.063,-4.0638,0,0,0,0,0,0,0,0,0,0,0,0,0,-4.0263,-4.0145,-4.0419,-4.0413,-4.0413,-4.0546,-4.0549,-4.0551,-4.0501,-4.0496,-4.0492,-4.0488,-4.062,-4.0629,-4.0639,-4.0787,0,0,-4.0668,-4.0672,0,0,0,0,0,0,0,0,-4.0256,-4.0273,-4.0412,-4.0413,-4.0414,-4.0503,-4.0498,-4.063,-4.0502,-4.0468,-4.0491,-4.0485,-4.0588,-4.06,-4.0634,-4.0794,-4.0799,-4.0669,-4.0675,-4.0679,-4.0681,0,0,0,0,0,0,0,-4.0247,-4.0267,-4.047,-4.0414,-4.0416,-4.0405,-4.0418,-4.0523,-4.0552,-4.047,-4.0467,-4.0482,-4.0588,-4.0625,-4.0636,-4.0801,-4.0668,-4.0677,-4.0683,-4.0687,-4.1093,-4.1097,0,0,0,0,0,0,-4.0238,-4.026,-4.0466,-4.0474,-4.0322,-4.0414,-4.0428,-4.0479,-4.055,-4.0557,-4.0486,-4.048,-4.0611,-4.0625,-4.0641,-4.0821,-4.0679,-4.0687,-4.0693,-4.1088,-4.1094,-4.1099,0,0,0,0,0,0,-4.0232,-4.0256,-4.0461,-4.0366,-4.0392,-4.0423,-4.0481,-4.0484,-4.052,-4.0562,-4.0567,-4.0518,-4.0608,-4.0628,-4.0752,-4.0825,-4.0692,-4.07,-4.1082,-4.1089,-4.1096,-4.1181,0,0,0,0,0,0,-4.0224,-4.0255,-4.031,-4.0368,-4.0397,-4.0568,-4.0485,-4.049,-4.0537,-4.0529,-4.0594,-4.06,-4.0606,-4.0738,-4.0761,-4.0835,-4.0708,-4.1075,-4.1085,-4.1094,-4.1172,-4.119,-4.1206,0,0,0,0,0,-4.0214,-4.0329,-4.0313,-4.0338,-4.0466,-4.0572,-4.0589,-4.0592,-4.0543,-4.06,-4.0627,-4.0598,-4.0813,-4.0751,-4.0777,-4.0855,-4.107,-4.1082,-4.1093,-4.1164,-4.1187,-4.1206,0,0,0,0,0,0,-4.0279,-4.0336,-4.0319,-4.0456,-4.051,-4.0563,-4.0635,-4.0616,-4.0685,-4.0675,-4.0678,-4.0693,-4.0821,-4.0851,-4.078,-4.1004,-4.0935,-4.0952,-4.098,-4.1002,-4.1019,-4.1009,-4.0716,0,0,0,0,0,-4.0309,-4.0389,-4.0435,-4.0551,-4.0579,-4.0603,-4.0649,-4.0647,-4.0703,-4.0726,-4.0762,-4.0819,-4.0899,-4.0952,-4.1029,-4.1176,-4.1191,-4.1243,-4.1261,-4.1275,-4.1289,-4.1372,-4.1396,-4.1137,-4.1136,-4.1136,0,0,-4.0372,-4.0413,-4.0463,-4.0565,-4.0607,-4.0691,-4.0622,-4.0714,-4.0777,-4.074,-4.0859,-4.0888,-4.0952,-4.1089,-4.1151,-4.1118,-4.1365,-4.1289,-4.13,-4.1307,-4.1386,-4.1411,-4.1432,-4.1144,-4.1143,-4.1142,0,0,-4.053,-4.0568,-4.067,-4.0714,-4.0777,-4.0792,-4.0817,-4.0875,-4.0893,-4.1012,-4.0987,-4.1064,-4.1202,-4.1249,-4.1291,-4.1471,-4.1447,-4.1496,-4.1586,-4.1666,-4.1687,-4.1705,-4.177,-4.1793,-4.151,-4.1511,-4.1511,0,-4.06,-4.0724,-4.0725,-4.082,-4.0866,-4.0837,-4.0941,-4.0984,-4.107,-4.1103,-4.1065,-4.1239,-4.128,-4.1428,-4.1473,-4.1507,-4.1537,-4.1487,-4.1684,-4.1702,-4.1719,-4.1781,-4.1805,-4.1516,-4.1515,-4.1515,-4.1514,0,-4.0809,-4.0896,-4.0971,-4.1054,-4.1109,-4.1208,-4.1226,-4.1283,-4.1277,-4.1297,-4.1421,-4.147,-4.1556,-4.1592,-4.1587,-4.1741,-4.1718,-4.1682,-4.1612,-4.1749,-4.1807,-4.1831,-4.1524,-4.1522,-4.152,-4.1519,0,0,-4.1008,-4.1092,-4.112,-4.1158,-4.1228,-4.1296,-4.1395,-4.1479,-4.1528,-4.159,-4.1674,-4.1793,-4.1761,-4.1809,-4.181,-4.188,-4.2021,-4.1835,-4.1837,-4.1868,-4.2195,-4.2221,-4.2249,-4.2007,-4.2011,-4.2015,-4.219,0,-4.1172,-4.1343,-4.1349,-4.1507,-4.1588,-4.1564,-4.165,-4.1704,-4.1726,-4.1801,-4.1826,-4.1911,-4.1861,-4.189,-4.1959,-4.1989,-4.2086,-4.1977,-4.2086,-4.209,-4.207,-4.2279,-4.2307,-4.2469,-4.2213,-4.2216,-4.2219,0,-4.1384,-4.1452,-4.1618,-4.1678,-4.1712,-4.179,-4.1869,-4.1939,-4.2001,-4.2012,-4.2068,-4.2059,-4.2163,-4.2091,-4.2235,-4.216,-4.2206,-4.2228,-4.2234,-4.2244,-4.2162,-4.2294,-4.2521,-4.2545,-4.2255,-4.2252,-4.225,0,-4.1514,-4.1647,-4.1764,-4.1797,-4.187,-4.1925,-4.1959,-4.2015,-4.2066,-4.2136,-4.217,-4.2251,-4.2296,-4.236,-4.2375,-4.2321,-4.252,-4.2448,-4.2533,-4.2533,-4.2575,-4.2572,-4.2812,-4.2606,-4.2605,-4.2605,-4.2604,0,-4.1695,-4.1798,-4.1823,-4.1895,-4.201,-4.2017,-4.2132,-4.2161,-4.2212,-4.2291,-4.2276,-4.235,-4.2365,-4.2444,-4.2456,-4.2574,-4.2595,-4.2608,-4.261,-4.2609,-4.2608,-4.2638,-4.2627,-4.2611,-4.261,-4.2609,-4.2607,0,-4.1858,-4.1879,-4.2005,-4.2064,-4.2082,-4.2164,-4.2216,-4.2286,-4.2308,-4.2408,-4.2432,-4.2467,-4.2559,-4.258,-4.269,-4.2698,-4.2838,-4.283,-4.2817,-4.2816,-4.29,-4.2892,-4.3168,-4.3205,-4.2975,-4.2977,-4.2979,0,-4.1972,-4.2051,-4.2119,-4.217,-4.2206,-4.2288,-4.234,-4.2352,-4.2407,-4.2484,-4.2546,-4.2636,-4.2708,-4.2857,-4.2893,-4.2977,-4.297,-4.3062,-4.2983,-4.298,-4.2972,-4.2967,-4.2975,-4.3076,-4.3078,-4.308,-4.3082,0,-4.2173,-4.218,-4.2254,-4.2335,-4.2397,-4.2461,-4.2522,-4.2565,-4.2585,-4.2648,-4.2742,-4.2798,-4.291,-4.3001,-4.3086,-4.3122,-4.3107,-4.3107,-4.3131,-4.313,-4.312,-4.3127,-4.2858,-4.31,-4.3098,-4.3097,-4.3096,-4.3095,-4.2315,-4.2384,-4.2443,-4.2528,-4.2575,-4.2633,-4.2702,-4.2733,-4.2811,-4.2902,-4.2905,-4.3007,-4.3069,-4.3182,-4.3224,-4.3305,-4.3277,-4.3312,-4.3321,-4.3329,-4.3337,-4.3108,-4.3321,-4.3321,-4.332,-4.332,-4.3319,0,-4.2514,-4.2552,-4.263,-4.2715,-4.2783,-4.2762,-4.2829,-4.2887,-4.2977,-4.3036,-4.3108,-4.3217,-4.3305,-4.3349,-4.3437,-4.3494,-4.3489,-4.3517,-4.3512,-4.3521,-4.3357,-4.3327,-4.352,-4.3519,-4.3519,-4.3519,-4.3519,-4.3519,-4.2626,-4.2742,-4.2757,-4.2898,-4.2935,-4.3034,-4.3074,-4.3129,-4.3176,-4.3297,-4.337,-4.3398,-4.3452,-4.3544,-4.3625,-4.3636,-4.3669,-4.3701,-4.3708,-4.3553,-4.3533,-4.3513,-4.3485,-4.3708,-4.3708,-4.3866,-4.3867,-4.3869]},{"header":{"parameterUnit":"m.s-1","parameterCategory":1,"la1":30.2991,"la2":30.254,"lo1":-89.0895,"lo2":-89.0444,"dy":0.0017,"dx":0.0017,"nx":28,"ny":28,"refTime":"2023-09-25T21:00:00:Z","depth":0,"parameterNumber":3,"parameterNumberName":"V-component_of_WINDS"},"data":[0,0,0,0,0,0,0,0,0,0,0,0,0,0,0,0,0,0,0,0,0,0,0,0,0,0,0,0,0,0,0,0,0,0,0,0,0,0,0,0,0,0,0,0,0,0,0,0,0,0,0,0,0,0,0,0,0,0,2.2312,2.2313,0,2.2356,2.2356,2.2357,2.2443,2.2445,2.2447,2.2448,2.2489,2.2488,2.2488,0,0,0,0,0,0,0,0,0,0,0,0,0,2.23,2.23,2.2312,2.2313,2.2313,2.2356,2.2356,2.2357,2.2443,2.2445,2.2447,2.2449,2.2489,2.2488,2.2488,0,0,0,0,0,0,0,0,0,0,0,0,0,2.2321,2.23,2.2312,2.2362,2.2366,2.2356,2.2356,2.2357,2.2443,2.2445,2.2448,2.245,2.2489,2.2488,2.2488,2.2431,0,0,2.2485,2.2485,0,0,0,0,0,0,0,0,2.2319,2.2321,2.2354,2.2358,2.2364,2.2397,2.2367,2.2382,2.2442,2.2413,2.2448,2.2451,2.2456,2.2458,2.246,2.2433,2.2435,2.2485,2.2485,2.2484,2.2484,0,0,0,0,0,0,0,2.2318,2.2319,2.2329,2.2354,2.236,2.238,2.2386,2.237,2.2419,2.2416,2.2423,2.2427,2.2459,2.2461,2.2462,2.2435,2.2485,2.2484,2.2484,2.2484,2.2361,2.2359,0,0,0,0,0,0,2.231,2.2318,2.2328,2.2331,2.2348,2.2378,2.2385,2.2383,2.242,2.2428,2.2425,2.2431,2.2461,2.2463,2.2464,2.2397,2.2484,2.2484,2.2483,2.2364,2.2361,2.2358,0,0,0,0,0,0,2.2309,2.231,2.2326,2.2326,2.233,2.2376,2.2374,2.2383,2.2385,2.2426,2.2435,2.2417,2.2463,2.2465,2.2438,2.24,2.2483,2.2482,2.2367,2.2363,2.2359,2.2265,0,0,0,0,0,0,2.2308,2.2309,2.2289,2.2325,2.2329,2.2301,2.2371,2.2382,2.2384,2.2392,2.2422,2.2429,2.2465,2.2439,2.2437,2.24,2.2482,2.2371,2.2366,2.2361,2.2272,2.2259,2.2247,0,0,0,0,0,2.2308,2.226,2.2287,2.2288,2.2305,2.2298,2.2301,2.2344,2.238,2.2359,2.2386,2.2428,2.2406,2.2436,2.2435,2.2397,2.2373,2.2367,2.2361,2.2278,2.2261,2.2247,0,0,0,0,0,0,2.2216,2.2266,2.2296,2.2259,2.2274,2.2313,2.2288,2.2326,2.2329,2.2337,2.239,2.2396,2.2361,2.2377,2.241,2.2343,2.2396,2.2389,2.2333,2.2318,2.2306,2.2301,2.2481,0,0,0,0,0,2.2192,2.2184,2.2227,2.219,2.2197,2.2241,2.224,2.2272,2.2289,2.2295,2.232,2.2333,2.2329,2.2325,2.2324,2.2276,2.2282,2.225,2.2237,2.2227,2.2219,2.2193,2.2178,2.2337,2.2337,2.2338,0,0,2.2141,2.2167,2.2159,2.2173,2.2188,2.2176,2.2245,2.2231,2.2222,2.2293,2.2268,2.2287,2.2306,2.2268,2.2253,2.228,2.2177,2.2219,2.221,2.2208,2.2185,2.2169,2.2156,2.2333,2.2334,2.2335,0,0,2.2042,2.2063,2.2033,2.2047,2.207,2.21,2.2093,2.2127,2.2142,2.212,2.2172,2.2162,2.2155,2.2165,2.2169,2.2076,2.2113,2.2074,2.2007,2.1981,2.1968,2.1957,2.192,2.1907,2.2067,2.2067,2.2067,0,2.1975,2.1961,2.2012,2.1994,2.1998,2.2064,2.2033,2.2044,2.2064,2.2065,2.2096,2.2087,2.2105,2.2069,2.2046,2.2049,2.204,2.2069,2.1966,2.1956,2.1946,2.1911,2.1898,2.2062,2.2062,2.2063,2.2063,0,2.1877,2.1867,2.184,2.1859,2.186,2.1836,2.1882,2.1877,2.191,2.1936,2.1911,2.1935,2.1938,2.1933,2.1965,2.1901,2.1917,2.1957,2.201,2.1925,2.1893,2.188,2.2054,2.2056,2.2058,2.2059,0,0,2.1717,2.1767,2.1756,2.1765,2.1796,2.1788,2.1767,2.1772,2.1765,2.1778,2.1759,2.1751,2.1788,2.1793,2.1827,2.1804,2.1724,2.1846,2.1847,2.1819,2.1652,2.1619,2.1603,2.1752,2.1749,2.1748,2.1649,0,2.1622,2.1588,2.1634,2.1589,2.1579,2.1642,2.1623,2.1639,2.1664,2.1658,2.1685,2.1677,2.1728,2.1731,2.1712,2.1738,2.1691,2.1746,2.1731,2.173,2.172,2.1587,2.1553,2.1459,2.1638,2.1636,2.1634,0,2.1506,2.1513,2.1468,2.1501,2.1499,2.1481,2.1488,2.1483,2.1502,2.1522,2.1527,2.1568,2.1548,2.1603,2.1574,2.1611,2.1608,2.162,2.1617,2.1614,2.1674,2.1576,2.143,2.1414,2.1616,2.1617,2.1619,0,2.1389,2.1389,2.1361,2.1368,2.1407,2.1392,2.1408,2.143,2.143,2.1437,2.1437,2.1441,2.1442,2.1443,2.1483,2.1521,2.1448,2.1508,2.1461,2.1459,2.1439,2.1439,2.1286,2.1444,2.1444,2.1444,2.1445,0,2.1275,2.1244,2.131,2.1292,2.1258,2.1312,2.1276,2.1298,2.1318,2.1304,2.136,2.1346,2.1402,2.1393,2.1425,2.1394,2.1396,2.1408,2.1416,2.1401,2.1399,2.1397,2.1402,2.1441,2.1442,2.1442,2.1443,0,2.1138,2.1181,2.1154,2.1194,2.1204,2.1177,2.121,2.1195,2.1224,2.1206,2.1205,2.125,2.1243,2.1285,2.1285,2.1306,2.1258,2.1279,2.1251,2.1256,2.1206,2.1208,2.1042,2.1022,2.1197,2.1195,2.1194,0,2.106,2.1037,2.1076,2.1071,2.1084,2.1077,2.1077,2.1129,2.1127,2.1148,2.1129,2.1127,2.1127,2.1113,2.1144,2.1144,2.1163,2.1105,2.1163,2.1148,2.1158,2.1157,2.1153,2.1091,2.1089,2.1088,2.1086,0,2.0916,2.0939,2.0938,2.0945,2.0944,2.0951,2.0962,2.0955,2.1012,2.1006,2.1,2.1001,2.1002,2.0998,2.1004,2.1019,2.106,2.1069,2.1057,2.1038,2.1021,2.1026,2.1214,2.1071,2.1072,2.1073,2.1074,2.1075,2.0804,2.0786,2.081,2.0807,2.0821,2.083,2.0817,2.0846,2.0842,2.0847,2.0879,2.0866,2.0886,2.0899,2.091,2.0899,2.0927,2.0911,2.0906,2.09,2.0889,2.1027,2.0901,2.0902,2.0902,2.0903,2.0903,0,2.0659,2.0678,2.0676,2.069,2.0687,2.073,2.0745,2.0738,2.0727,2.0743,2.0743,2.0735,2.0732,2.0764,2.0764,2.075,2.0769,2.0748,2.0747,2.0749,2.0867,2.0875,2.0732,2.0732,2.0732,2.0732,2.0732,2.0732,2.0583,2.0555,2.0581,2.0559,2.0579,2.0568,2.0572,2.058,2.0593,2.0582,2.058,2.0602,2.0623,2.0626,2.0624,2.0634,2.0629,2.0601,2.0616,2.0725,2.0741,2.0757,2.0764,2.0601,2.06,2.0499,2.0498,2.0497]}]]